Flag for France Weather past 2 weeks in Perpignan, France

Now
43 °F

Overcast.


Feels Like: 34 °F
Forecast: 48 / 60 °F
Wind: 18 mph from Northwest

Location: Perpignan Airport

Current Time: Jan 26, 2015 at 7:56:52 AM

Latest Report: Jan 26, 2015 at 7:30 AM


Visibility: N/A

Pressure: 30.36 "Hg

Humidity: 57%

Dew point: 28 °F

Location of PerpignanLocation

Historic Weather in Perpignan — Graph

°F

Perpignan temperature yesterday

Maximum temperature yesterday: 46 °F (at 1:30 PM)
Minimum temperature yesterday: 41 °F (at 12:00 AM)
Average temperature yesterday: 44 °F

Past Weeks' High & Low Weather Summary

 TemperatureHumidityPressure
High63 °F (Jan 14, 2:00 PM)100% (Jan 14, 1:30 AM)30.57 "Hg (Jan 14, 1:30 AM)
Low32 °F (Jan 12, 8:00 AM)17% (Jan 20, 2:00 PM)29.65 "Hg (Jan 21, 2:00 PM)
Average46 °F66%30.04 "Hg
* Reported Jan 11 6:00 AM — Jan 26 6:30 AM, Perpignan, Weather by CustomWeather, © 2014

Note: Actual official high and low records may vary slightly from our data, if they occured in-between our weather recording intervals... More about our weather records

Advertising

Perpignan weather history for previous 24 hours

 ConditionsComfort  
Time TempWeatherWind HumidityBarometerVisibility
6:30 AM
Jan 26
43 °FMostly cloudy.23 mph53%30.36 "HgN/A
6:00 AM43 °FOvercast.25 mph53%30.33 "HgN/A
5:30 AM43 °FPassing clouds.28 mph53%30.30 "HgN/A
5:00 AM43 °FPartly cloudy.32 mph53%30.30 "HgN/A
4:30 AM43 °FClear.32 mph53%30.30 "HgN/A
3:30 AM43 °FOvercast.28 mph53%30.33 "HgN/A
3:00 AM43 °FMostly cloudy.28 mph53%30.33 "HgN/A
2:30 AM43 °FClear.18 mph53%30.33 "HgN/A
2:00 AM43 °FClear.18 mph57%30.33 "HgN/A
1:30 AM43 °FClear.26 mph53%30.33 "HgN/A
1:00 AM43 °FClear.22 mph57%30.36 "HgN/A
12:30 AM43 °FClear.18 mph57%30.36 "HgN/A
12:00 AM43 °FClear.21 mph57%30.33 "HgN/A
11:30 PM
Jan 25
43 °FClear.23 mph57%30.36 "HgN/A
11:00 PM43 °FClear.24 mph57%30.33 "HgN/A
10:30 PM43 °FClear.30 mph57%30.33 "HgN/A
10:00 PM43 °FClear.26 mph57%30.33 "HgN/A
9:30 PM43 °FClear.26 mph57%30.33 "HgN/A
9:00 PM43 °FClear.30 mph57%30.33 "HgN/A
8:30 PM45 °FClear.35 mph49%30.30 "HgN/A
8:00 PM45 °FClear.22 mph46%30.33 "HgN/A
7:30 PM45 °FClear.23 mph46%30.30 "HgN/A
7:00 PM45 °FClear.21 mph42%30.30 "HgN/A
6:30 PM46 °FClear.20 mph40%30.30 "HgN/A
6:00 PM45 °FClear.25 mph46%30.30 "HgN/A
5:30 PM45 °FClear.25 mph46%30.27 "HgN/A
5:00 PM45 °FClear.28 mph46%30.27 "HgN/A
4:30 PM45 °FClear.26 mph46%30.27 "HgN/A
4:00 PM46 °FClear.29 mph40%30.27 "HgN/A
3:30 PM46 °FClear.31 mph43%30.27 "HgN/A
3:00 PM46 °FClear.28 mph43%30.27 "HgN/A
2:30 PM46 °FClear.26 mph46%30.27 "HgN/A
2:00 PM46 °FClear.25 mph43%30.27 "HgN/A
1:30 PM46 °FClear.25 mph43%30.27 "HgN/A
1:00 PM45 °FClear.35 mph49%30.24 "HgN/A
12:30 PM45 °FClear.30 mph49%30.27 "HgN/A
12:00 PM45 °FClear.32 mph49%30.27 "HgN/A
11:30 AM45 °FClear.33 mph49%30.30 "HgN/A
11:00 AM45 °FClear.37 mph49%30.30 "HgN/A
10:30 AM45 °FClear.32 mph49%30.33 "HgN/A
10:00 AM45 °FClear.32 mph49%30.30 "HgN/A
9:30 AM45 °FClear.30 mph49%30.27 "HgN/A
9:00 AM43 °FClear.38 mph53%30.27 "HgN/A
8:30 AM43 °FClear.43 mph53%30.21 "HgN/A
8:00 AM43 °FClear.30 mph49%30.21 "HgN/A
7:30 AM43 °FClear.35 mph49%30.24 "HgN/A
7:00 AM43 °FClear.28 mph49%30.24 "HgN/A
Weather by CustomWeather, © 2014

See weather overviewHow to use our weather pages